[[{"header":{"parameterUnit":"m.s-1","parameterCategory":1,"la1":30.2991,"la2":30.254,"lo1":-89.0895,"lo2":-89.0444,"dy":0.0017,"dx":0.0017,"nx":28,"ny":28,"refTime":"2024-12-21T03:00:00:Z","depth":0,"parameterNumber":2,"parameterNumberName":"U-component_of_WINDS"},"data":[0,0,0,0,0,0,0,0,0,0,0,0,0,0,0,0,0,0,0,0,0,0,0,0,0,0,0,0,0,0,0,0,0,0,0,0,0,0,0,0,0,0,0,0,0,0,0,0,0,0,0,0,0,0,0,0,0,0,0.1664,0.1664,0,0.1657,0.1657,0.1657,0.1652,0.1652,0.1652,0.1652,0.1644,0.1644,0.1644,0,0,0,0,0,0,0,0,0,0,0,0,0,0.1674,0.1673,0.1664,0.1664,0.1663,0.1657,0.1657,0.1657,0.1652,0.1652,0.1652,0.1652,0.1644,0.1644,0.1644,0,0,0,0,0,0,0,0,0,0,0,0,0,0.1668,0.1673,0.1664,0.166,0.166,0.1657,0.1657,0.1656,0.1652,0.1652,0.1652,0.1652,0.1645,0.1644,0.1644,0.1643,0,0,0.1643,0.1643,0,0,0,0,0,0,0,0,0.1668,0.1668,0.1661,0.1661,0.166,0.1655,0.1657,0.1652,0.1652,0.1655,0.1652,0.1652,0.1648,0.1647,0.1646,0.1643,0.1643,0.1643,0.1643,0.1643,0.1643,0,0,0,0,0,0,0,0.1669,0.1668,0.1661,0.1661,0.166,0.1659,0.1659,0.1656,0.1652,0.1655,0.1654,0.1654,0.1648,0.1646,0.1646,0.1642,0.1643,0.1643,0.1643,0.1643,0.1639,0.1639,0,0,0,0,0,0,0.167,0.1668,0.1661,0.1661,0.1664,0.1659,0.1658,0.1657,0.1652,0.1651,0.1654,0.1654,0.1647,0.1646,0.1646,0.1645,0.1643,0.1643,0.1643,0.1639,0.1639,0.1639,0,0,0,0,0,0,0.167,0.1669,0.1661,0.1664,0.1663,0.1659,0.1657,0.1657,0.1655,0.1651,0.165,0.1653,0.1647,0.1646,0.1644,0.1645,0.1643,0.1642,0.1639,0.1639,0.1639,0.1643,0,0,0,0,0,0,0.167,0.1669,0.1669,0.1664,0.1663,0.166,0.1657,0.1657,0.1655,0.1655,0.165,0.165,0.1647,0.1645,0.1644,0.1644,0.1642,0.1639,0.1639,0.1639,0.1643,0.1644,0.1644,0,0,0,0,0,0.1671,0.167,0.1669,0.1668,0.1662,0.166,0.1659,0.1656,0.1655,0.1655,0.1652,0.165,0.1645,0.1644,0.1644,0.1644,0.1639,0.1639,0.1639,0.1643,0.1644,0.1644,0,0,0,0,0,0,0.1673,0.1669,0.1668,0.1665,0.1663,0.1659,0.1658,0.1656,0.1654,0.1654,0.165,0.1649,0.1648,0.1646,0.1645,0.1644,0.1642,0.1642,0.1645,0.1645,0.1646,0.1646,0.1642,0,0,0,0,0,0.1674,0.1672,0.1668,0.1667,0.1666,0.1662,0.1661,0.1659,0.1656,0.1655,0.1652,0.165,0.1648,0.1647,0.1644,0.1643,0.1642,0.1643,0.1644,0.1644,0.1644,0.1644,0.1644,0.164,0.164,0.164,0,0,0.1675,0.1672,0.1671,0.1667,0.1665,0.1664,0.1661,0.1659,0.1658,0.1655,0.1653,0.1651,0.1648,0.1647,0.1646,0.1645,0.1645,0.1644,0.1644,0.1644,0.1644,0.1645,0.1645,0.164,0.164,0.164,0,0,0.1675,0.1673,0.1671,0.167,0.1667,0.1665,0.1665,0.1661,0.166,0.1658,0.1656,0.1655,0.1651,0.1649,0.1648,0.165,0.1647,0.1649,0.1651,0.1651,0.1651,0.1652,0.1653,0.1653,0.1649,0.1649,0.1649,0,0.1676,0.1674,0.1671,0.167,0.1668,0.1666,0.1665,0.1663,0.166,0.1659,0.1658,0.1655,0.1652,0.1651,0.1652,0.165,0.165,0.1649,0.1652,0.1652,0.1652,0.1653,0.1653,0.1649,0.1649,0.1649,0.1649,0,0.1675,0.1674,0.1673,0.1671,0.1669,0.1668,0.1666,0.1665,0.1663,0.1662,0.1661,0.1658,0.1656,0.1655,0.1654,0.1654,0.1654,0.1652,0.165,0.1653,0.1654,0.1654,0.165,0.1649,0.1649,0.1649,0,0,0.1676,0.1673,0.1673,0.1672,0.167,0.1668,0.1668,0.1666,0.1666,0.1664,0.1663,0.1661,0.166,0.1659,0.1657,0.1657,0.1659,0.1655,0.1655,0.1656,0.166,0.1661,0.1662,0.1658,0.1658,0.1658,0.1661,0,0.1676,0.1675,0.1673,0.1672,0.1671,0.1669,0.1669,0.1667,0.1666,0.1665,0.1664,0.1662,0.1661,0.166,0.166,0.1659,0.166,0.1659,0.1658,0.1658,0.1658,0.1662,0.1663,0.1665,0.1661,0.1661,0.1661,0,0.1676,0.1675,0.1674,0.1672,0.1672,0.1671,0.167,0.1669,0.1668,0.1667,0.1667,0.1665,0.1665,0.1663,0.1663,0.1662,0.1662,0.1661,0.1661,0.1661,0.1659,0.1662,0.1666,0.1666,0.1661,0.1661,0.1661,0,0.1677,0.1675,0.1675,0.1674,0.1672,0.1672,0.1671,0.167,0.167,0.1669,0.1669,0.1668,0.1667,0.1667,0.1665,0.1664,0.1665,0.1664,0.1665,0.1665,0.1665,0.1665,0.1669,0.1665,0.1665,0.1665,0.1665,0,0.1677,0.1677,0.1675,0.1675,0.1675,0.1673,0.1673,0.1672,0.1672,0.1671,0.167,0.167,0.1668,0.1668,0.1667,0.1667,0.1667,0.1666,0.1666,0.1666,0.1666,0.1666,0.1665,0.1665,0.1665,0.1665,0.1665,0,0.1678,0.1677,0.1677,0.1675,0.1675,0.1675,0.1674,0.1674,0.1673,0.1673,0.1673,0.1672,0.1672,0.167,0.167,0.1669,0.167,0.1669,0.167,0.167,0.1671,0.1671,0.1675,0.1676,0.1671,0.1671,0.1671,0,0.1678,0.1678,0.1677,0.1677,0.1677,0.1676,0.1676,0.1675,0.1675,0.1674,0.1674,0.1674,0.1674,0.1674,0.1673,0.1673,0.1672,0.1674,0.1672,0.1673,0.1673,0.1673,0.1673,0.1674,0.1674,0.1674,0.1674,0,0.1678,0.1678,0.1678,0.1678,0.1678,0.1678,0.1677,0.1678,0.1677,0.1677,0.1677,0.1677,0.1677,0.1677,0.1677,0.1676,0.1675,0.1675,0.1675,0.1675,0.1676,0.1676,0.1671,0.1674,0.1674,0.1674,0.1674,0.1674,0.1679,0.1679,0.1679,0.1679,0.1679,0.1679,0.1679,0.1679,0.1679,0.1679,0.1679,0.1679,0.1679,0.1679,0.1679,0.1679,0.1678,0.1679,0.1679,0.1679,0.1679,0.1676,0.1679,0.1679,0.1679,0.1679,0.1679,0,0.168,0.168,0.168,0.168,0.168,0.168,0.168,0.168,0.1681,0.1681,0.1681,0.1682,0.1682,0.1682,0.1682,0.1683,0.1683,0.1683,0.1683,0.1683,0.168,0.168,0.1683,0.1683,0.1683,0.1683,0.1683,0.1683,0.168,0.168,0.168,0.1681,0.1681,0.1682,0.1682,0.1682,0.1683,0.1684,0.1684,0.1684,0.1684,0.1685,0.1686,0.1686,0.1686,0.1687,0.1686,0.1683,0.1683,0.1683,0.1682,0.1687,0.1687,0.169,0.169,0.169]},{"header":{"parameterUnit":"m.s-1","parameterCategory":1,"la1":30.2991,"la2":30.254,"lo1":-89.0895,"lo2":-89.0444,"dy":0.0017,"dx":0.0017,"nx":28,"ny":28,"refTime":"2024-12-21T03:00:00:Z","depth":0,"parameterNumber":3,"parameterNumberName":"V-component_of_WINDS"},"data":[0,0,0,0,0,0,0,0,0,0,0,0,0,0,0,0,0,0,0,0,0,0,0,0,0,0,0,0,0,0,0,0,0,0,0,0,0,0,0,0,0,0,0,0,0,0,0,0,0,0,0,0,0,0,0,0,0,0,-5.1385,-5.1386,0,-5.1475,-5.1476,-5.1477,-5.1469,-5.1467,-5.1466,-5.1464,-5.1551,-5.1555,-5.1558,0,0,0,0,0,0,0,0,0,0,0,0,0,-5.12,-5.1203,-5.1385,-5.1386,-5.1387,-5.1475,-5.1476,-5.1478,-5.1469,-5.1467,-5.1465,-5.1464,-5.155,-5.1554,-5.1558,0,0,0,0,0,0,0,0,0,0,0,0,0,-5.1284,-5.1204,-5.1385,-5.1393,-5.1395,-5.1475,-5.1476,-5.1478,-5.1469,-5.1467,-5.1465,-5.1463,-5.1549,-5.1554,-5.1559,-5.1634,0,0,-5.1576,-5.1578,0,0,0,0,0,0,0,0,-5.1279,-5.1291,-5.1391,-5.1393,-5.1395,-5.1459,-5.1443,-5.153,-5.147,-5.1441,-5.1464,-5.1462,-5.1522,-5.1529,-5.155,-5.1638,-5.1642,-5.1576,-5.1579,-5.1582,-5.1583,0,0,0,0,0,0,0,-5.1273,-5.1287,-5.142,-5.1392,-5.1395,-5.1391,-5.1401,-5.1459,-5.1492,-5.1443,-5.1443,-5.1454,-5.1522,-5.1545,-5.1552,-5.1643,-5.1576,-5.1581,-5.1584,-5.1586,-5.1798,-5.18,0,0,0,0,0,0,-5.1266,-5.1282,-5.1418,-5.1423,-5.1331,-5.1396,-5.1407,-5.144,-5.1491,-5.1497,-5.1456,-5.1453,-5.1537,-5.1546,-5.1555,-5.1648,-5.1582,-5.1587,-5.159,-5.1796,-5.1799,-5.1801,0,0,0,0,0,0,-5.1262,-5.1278,-5.1414,-5.1353,-5.137,-5.1402,-5.1439,-5.1443,-5.1466,-5.1501,-5.1506,-5.1474,-5.1536,-5.1548,-5.1615,-5.1651,-5.1589,-5.1594,-5.1793,-5.1797,-5.18,-5.1832,0,0,0,0,0,0,-5.1257,-5.1277,-5.1307,-5.1353,-5.1373,-5.1474,-5.1441,-5.1446,-5.1476,-5.1474,-5.1519,-5.1524,-5.1535,-5.1607,-5.1621,-5.1657,-5.1598,-5.179,-5.1795,-5.1799,-5.1828,-5.1836,-5.1843,0,0,0,0,0,-5.125,-5.1311,-5.1308,-5.1325,-5.1411,-5.1476,-5.1487,-5.15,-5.1479,-5.1509,-5.1531,-5.1523,-5.1645,-5.1614,-5.1629,-5.1668,-5.1788,-5.1793,-5.1798,-5.1825,-5.1835,-5.1843,0,0,0,0,0,0,-5.1265,-5.1317,-5.1315,-5.1392,-5.143,-5.1474,-5.1512,-5.151,-5.1553,-5.1549,-5.1561,-5.1572,-5.164,-5.166,-5.1626,-5.1743,-5.1713,-5.1722,-5.1728,-5.1738,-5.1745,-5.1739,-5.1603,0,0,0,0,0,-5.1278,-5.1328,-5.1369,-5.1434,-5.1453,-5.148,-5.1508,-5.1515,-5.1554,-5.1569,-5.1596,-5.1633,-5.1679,-5.1709,-5.1754,-5.1831,-5.1841,-5.1865,-5.1872,-5.1878,-5.1886,-5.1929,-5.194,-5.1819,-5.1819,-5.1819,0,0,-5.1303,-5.1338,-5.1368,-5.1437,-5.1468,-5.1518,-5.1493,-5.1546,-5.1584,-5.1577,-5.1643,-5.1664,-5.1705,-5.1779,-5.1812,-5.1797,-5.1922,-5.1885,-5.189,-5.1894,-5.1935,-5.1947,-5.1957,-5.1822,-5.1822,-5.1821,0,0,-5.1376,-5.1407,-5.1465,-5.1496,-5.1543,-5.1561,-5.1575,-5.162,-5.1635,-5.1702,-5.1698,-5.1741,-5.1821,-5.1852,-5.1877,-5.1964,-5.1957,-5.1977,-5.2018,-5.2059,-5.2069,-5.2078,-5.2109,-5.212,-5.1984,-5.1985,-5.1985,0,-5.1401,-5.1479,-5.1494,-5.155,-5.158,-5.1579,-5.1637,-5.1666,-5.1724,-5.1745,-5.1728,-5.183,-5.1857,-5.1938,-5.1959,-5.198,-5.1996,-5.1972,-5.2067,-5.2075,-5.2084,-5.2114,-5.2125,-5.1987,-5.1987,-5.1986,-5.1986,0,-5.1508,-5.1562,-5.1603,-5.1662,-5.1697,-5.1753,-5.1776,-5.181,-5.1814,-5.1833,-5.1902,-5.1935,-5.1987,-5.2007,-5.201,-5.2088,-5.2078,-5.2064,-5.2034,-5.2097,-5.2126,-5.2137,-5.199,-5.1989,-5.1988,-5.1988,0,0,-5.1592,-5.1661,-5.1675,-5.1703,-5.1755,-5.1796,-5.1852,-5.1906,-5.1935,-5.1975,-5.2022,-5.209,-5.2079,-5.2108,-5.2115,-5.2152,-5.2219,-5.2133,-5.2134,-5.2148,-5.2307,-5.2318,-5.2331,-5.2215,-5.2218,-5.2219,-5.2304,0,-5.167,-5.1772,-5.1789,-5.1878,-5.1928,-5.1928,-5.1977,-5.2013,-5.2033,-5.2077,-5.2097,-5.2146,-5.2126,-5.2144,-5.2181,-5.2203,-5.2251,-5.2197,-5.2258,-5.226,-5.2249,-5.2346,-5.2357,-5.2435,-5.2315,-5.2317,-5.2318,0,-5.1775,-5.1822,-5.1917,-5.1964,-5.1986,-5.203,-5.2081,-5.2123,-5.2164,-5.2176,-5.221,-5.2213,-5.227,-5.2238,-5.2317,-5.228,-5.2306,-5.232,-5.2324,-5.233,-5.2293,-5.2355,-5.246,-5.2472,-5.2336,-5.2335,-5.2333,0,-5.1828,-5.1914,-5.1982,-5.2005,-5.2062,-5.2093,-5.2118,-5.2158,-5.2189,-5.2233,-5.2253,-5.2302,-5.2329,-5.2366,-5.2382,-5.2357,-5.246,-5.2429,-5.2471,-5.247,-5.2492,-5.2491,-5.2604,-5.2508,-5.2508,-5.2508,-5.2508,0,-5.1914,-5.1972,-5.2007,-5.2049,-5.2114,-5.2131,-5.2195,-5.2218,-5.2254,-5.2299,-5.2301,-5.2344,-5.2362,-5.2407,-5.242,-5.2483,-5.2495,-5.2505,-5.2508,-5.2506,-5.2504,-5.2523,-5.2518,-5.2511,-5.251,-5.251,-5.2509,0,-5.1984,-5.2009,-5.2084,-5.2132,-5.2146,-5.2192,-5.2233,-5.2273,-5.2293,-5.235,-5.2365,-5.2395,-5.2448,-5.2468,-5.2532,-5.254,-5.2614,-5.2612,-5.2601,-5.2602,-5.2643,-5.2639,-5.2772,-5.2791,-5.2683,-5.2684,-5.2684,0,-5.2037,-5.2083,-5.2137,-5.2169,-5.2196,-5.2247,-5.228,-5.2299,-5.2333,-5.2385,-5.2419,-5.2472,-5.2516,-5.2601,-5.2628,-5.2677,-5.2676,-5.2719,-5.2683,-5.268,-5.2677,-5.2675,-5.268,-5.2726,-5.2727,-5.2728,-5.2729,0,-5.213,-5.2141,-5.219,-5.2244,-5.2284,-5.2327,-5.2368,-5.2394,-5.2419,-5.2457,-5.2513,-5.2547,-5.2614,-5.2667,-5.2718,-5.2741,-5.2739,-5.274,-5.2752,-5.275,-5.2743,-5.2748,-5.262,-5.2737,-5.2736,-5.2735,-5.2735,-5.2734,-5.2194,-5.2235,-5.228,-5.2335,-5.2369,-5.2408,-5.2449,-5.2475,-5.2523,-5.258,-5.2588,-5.2648,-5.2689,-5.2757,-5.2783,-5.283,-5.2818,-5.2835,-5.284,-5.2844,-5.2848,-5.2735,-5.2839,-5.2838,-5.2838,-5.2838,-5.2838,0,-5.2287,-5.2317,-5.2368,-5.2427,-5.247,-5.2467,-5.2513,-5.2549,-5.2602,-5.2642,-5.2686,-5.2751,-5.2802,-5.2834,-5.2886,-5.2917,-5.2917,-5.293,-5.2928,-5.2933,-5.2855,-5.2839,-5.2929,-5.2929,-5.2929,-5.2929,-5.2929,-5.2929,-5.2341,-5.2411,-5.2428,-5.2514,-5.2542,-5.2604,-5.263,-5.2666,-5.2698,-5.2771,-5.2815,-5.2836,-5.2873,-5.2927,-5.2975,-5.2982,-5.3001,-5.3015,-5.3022,-5.2948,-5.2939,-5.293,-5.2915,-5.3019,-5.3019,-5.3097,-5.3098,-5.3098]}]]